Wind From: 10-12-2017 19:04 Until: 11-12-2017 16:00 warning for: Wind Level: Orange info button

Power and phone distribution networks may be disrupted for relatively long periods., Roofs and chimneys can be damaged. , Tree branches may break. , Vehicles can be deported. , Traffic may be disrupted, particularly on secondary roads in forest areas. Limit your trips. , Limit your speed in highway driving, especially if you drive a vehicle or hitch sensitive to wind. , Do not go for walks in forests or along the coast., In town, be vigilant against possible falling objects., Do not work on roofs and do not touch any electrical line fallen on the ground., Store or secure sensitive objects to wind or likely to be damaged., Always install power generators outside buildings. 


Meteo18 Weather Cam more information Meteo18 Weather Cam


Thunder radar more information blitzortung!


Rain radar more information rain snow radar


Visit our other weather sites:

Template documentation
and downloads

And another site



Weather Underground History page Text

Daily Summary for January 19, 2017 Units:  Metric    English   Both
« Previous Day
Next Day »
Daily Weekly Monthly Yearly Custom
  High: Low: Average:
Temperature: -0.1 °C -6.6 °C -3.9 °C
Dew Point: -4.4 °C -8.5 °C -6.6 °C
Humidity: 88 % 71 % 82 %
Wind Speed: 24.1 km/h 0.0 km/h 6.8 km/h
Wind Gust: 25.7 km/h - -
Wind:- - ENE
Pressure: 1031.4 hPa 1029.3 hPa -
Precipitation: 0.0 mm    
Historical Graphs
 
 
Tabular Data for January 19, 2017
Time Temperature Dew Point Pressure Wind Wind Speed Wind Gust Humidity Rainfall Rate (Hourly)
00:02 -4.6 °C -7.0 °C 1030.4 hPa Calm   16.1 km/h 83 % 0.0 mm
00:07 -4.6 °C -7.0 °C 1030.4 hPa NNE 1.6 km/h 9.7 km/h 83 % 0.0 mm
00:12 -4.7 °C -7.1 °C 1030.4 hPa North 6.4 km/h 8.0 km/h 83 % 0.0 mm
00:17 -4.7 °C -7.1 °C 1030.4 hPa NNW 3.2 km/h 8.0 km/h 83 % 0.0 mm
00:22 -4.7 °C -7.1 °C 1030.4 hPa North 3.2 km/h 8.0 km/h 83 % 0.0 mm
00:27 -4.8 °C -7.2 °C 1030.4 hPa Calm   8.0 km/h 83 % 0.0 mm
00:32 -4.8 °C -7.1 °C 1030.4 hPa North 4.8 km/h 8.0 km/h 84 % 0.0 mm
00:37 -4.8 °C -7.1 °C 1030.4 hPa NE 3.2 km/h 8.0 km/h 84 % 0.0 mm
00:42 -4.8 °C -7.1 °C 1030.4 hPa NE 1.6 km/h 6.4 km/h 84 % 0.0 mm
00:47 -4.9 °C -7.2 °C 1030.0 hPa NNW 3.2 km/h 6.4 km/h 84 % 0.0 mm
00:52 -4.9 °C -7.2 °C 1030.4 hPa Calm   6.4 km/h 84 % 0.0 mm
00:57 -4.9 °C -7.2 °C 1030.4 hPa NNW 1.6 km/h 11.3 km/h 84 % 0.0 mm
01:02 -4.8 °C -7.1 °C 1030.4 hPa North 3.2 km/h 11.3 km/h 84 % 0.0 mm
01:07 -4.8 °C -7.2 °C 1030.4 hPa North 6.4 km/h 11.3 km/h 83 % 0.0 mm
01:12 -4.8 °C -7.2 °C 1030.0 hPa NNE 4.8 km/h 11.3 km/h 83 % 0.0 mm
01:17 -4.7 °C -7.1 °C 1030.0 hPa NE 1.6 km/h 19.3 km/h 83 % 0.0 mm
01:22 -4.8 °C -7.2 °C 1030.0 hPa NNW 4.8 km/h 19.3 km/h 83 % 0.0 mm
01:27 -4.9 °C -7.3 °C 1030.0 hPa NNE 11.3 km/h 12.9 km/h 83 % 0.0 mm
01:32 -4.8 °C -7.2 °C 1030.0 hPa North 8.0 km/h 14.5 km/h 83 % 0.0 mm
01:37 -4.7 °C -7.1 °C 1030.0 hPa ENE 1.6 km/h 14.5 km/h 83 % 0.0 mm
01:42 -4.7 °C -7.3 °C 1030.0 hPa NNE 8.0 km/h 14.5 km/h 82 % 0.0 mm
01:47 -4.8 °C -7.4 °C 1030.0 hPa North 4.8 km/h 14.5 km/h 82 % 0.0 mm
01:52 -4.8 °C -7.4 °C 1030.0 hPa NE 9.7 km/h 12.9 km/h 82 % 0.0 mm
01:57 -4.8 °C -7.4 °C 1030.0 hPa NNE 4.8 km/h 16.1 km/h 82 % 0.0 mm
02:02 -4.8 °C -7.4 °C 1030.0 hPa NE 4.8 km/h 17.7 km/h 82 % 0.0 mm
02:07 -4.8 °C -7.4 °C 1030.0 hPa NE 16.1 km/h 17.7 km/h 82 % 0.0 mm
02:12 -4.8 °C -7.4 °C 1030.0 hPa NE 19.3 km/h 22.5 km/h 82 % 0.0 mm
02:17 -4.9 °C -7.5 °C 1030.0 hPa NNE 12.9 km/h 22.5 km/h 82 % 0.0 mm
02:22 -4.9 °C -7.5 °C 1030.0 hPa NE 9.7 km/h 22.5 km/h 82 % 0.0 mm
02:27 -4.9 °C -7.5 °C 1030.0 hPa NNE 16.1 km/h 22.5 km/h 82 % 0.0 mm
02:32 -4.8 °C -7.4 °C 1030.0 hPa NNE 11.3 km/h 22.5 km/h 82 % 0.0 mm
02:37 -4.8 °C -7.4 °C 1030.0 hPa North 1.6 km/h 22.5 km/h 82 % 0.0 mm
02:42 -4.8 °C -7.4 °C 1030.4 hPa North 8.0 km/h 20.9 km/h 82 % 0.0 mm
02:47 -4.9 °C -7.5 °C 1030.4 hPa NNE 4.8 km/h 20.9 km/h 82 % 0.0 mm
02:52 -4.9 °C -7.5 °C 1030.4 hPa NNE 19.3 km/h 22.5 km/h 82 % 0.0 mm
02:57 -4.9 °C -7.5 °C 1030.4 hPa NE 6.4 km/h 24.1 km/h 82 % 0.0 mm
03:02 -4.9 °C -7.5 °C 1030.4 hPa NE 14.5 km/h 24.1 km/h 82 % 0.0 mm
03:07 -5.0 °C -7.6 °C 1030.0 hPa NNE 6.4 km/h 20.9 km/h 82 % 0.0 mm
03:12 -5.0 °C -7.6 °C 1030.0 hPa NNE 16.1 km/h 22.5 km/h 82 % 0.0 mm
03:17 -5.1 °C -7.7 °C 1030.0 hPa NNE 12.9 km/h 25.7 km/h 82 % 0.0 mm
03:22 -5.1 °C -7.7 °C 1030.0 hPa NE 9.7 km/h 25.7 km/h 82 % 0.0 mm
03:27 -5.1 °C -7.7 °C 1030.0 hPa NNE 19.3 km/h 25.7 km/h 82 % 0.0 mm
03:32 -5.2 °C -7.8 °C 1030.0 hPa NNE 8.0 km/h 24.1 km/h 82 % 0.0 mm
03:37 -5.2 °C -7.6 °C 1030.0 hPa NNW 8.0 km/h 22.5 km/h 83 % 0.0 mm
03:42 -5.2 °C -7.6 °C 1030.0 hPa NNE 4.8 km/h 22.5 km/h 83 % 0.0 mm
03:47 -5.3 °C -7.7 °C 1030.0 hPa ENE 9.7 km/h 19.3 km/h 83 % 0.0 mm
03:52 -5.3 °C -7.7 °C 1030.0 hPa NE 11.3 km/h 22.5 km/h 83 % 0.0 mm
03:57 -5.3 °C -7.7 °C 1030.0 hPa NNE 20.9 km/h 22.5 km/h 83 % 0.0 mm
04:02 -5.3 °C -7.7 °C 1030.0 hPa NE 6.4 km/h 22.5 km/h 83 % 0.0 mm
04:07 -5.4 °C -7.8 °C 1030.0 hPa NNE 12.9 km/h 24.1 km/h 83 % 0.0 mm
04:12 -5.4 °C -7.8 °C 1030.0 hPa North 4.8 km/h 22.5 km/h 83 % 0.0 mm
04:17 -5.4 °C -7.8 °C 1029.7 hPa NNE 8.0 km/h 19.3 km/h 83 % 0.0 mm
04:22 -5.4 °C -7.8 °C 1030.0 hPa ENE 9.7 km/h 19.3 km/h 83 % 0.0 mm
04:27 -5.5 °C -7.9 °C 1030.0 hPa ENE 6.4 km/h 19.3 km/h 83 % 0.0 mm
04:32 -5.6 °C -8.0 °C 1030.0 hPa North 11.3 km/h 19.3 km/h 83 % 0.0 mm
04:37 -5.6 °C -8.0 °C 1030.0 hPa NE 9.7 km/h 22.5 km/h 83 % 0.0 mm
04:42 -5.6 °C -8.0 °C 1029.7 hPa ENE 14.5 km/h 22.5 km/h 83 % 0.0 mm
04:47 -5.6 °C -8.0 °C 1029.7 hPa NNE 20.9 km/h 20.9 km/h 83 % 0.0 mm
04:52 -5.6 °C -8.0 °C 1029.7 hPa NE 19.3 km/h 20.9 km/h 83 % 0.0 mm
04:57 -5.7 °C -8.0 °C 1029.7 hPa NNE 14.5 km/h 24.1 km/h 84 % 0.0 mm
05:02 -5.7 °C -8.0 °C 1029.7 hPa NE 11.3 km/h 24.1 km/h 84 % 0.0 mm
05:12 -5.8 °C -8.1 °C 1029.7 hPa NNE 11.3 km/h 20.9 km/h 84 % 0.0 mm
05:17 -5.8 °C -8.1 °C 1029.7 hPa NE 14.5 km/h 19.3 km/h 84 % 0.0 mm
05:22 -5.8 °C -8.1 °C 1029.7 hPa NNW 9.7 km/h 19.3 km/h 84 % 0.0 mm
05:27 -5.8 °C -8.1 °C 1029.7 hPa NE 3.2 km/h 22.5 km/h 84 % 0.0 mm
05:32 -5.9 °C -8.2 °C 1029.7 hPa NNE 17.7 km/h 22.5 km/h 84 % 0.0 mm
05:37 -5.9 °C -8.2 °C 1029.7 hPa NE 6.4 km/h 25.7 km/h 84 % 0.0 mm
05:42 -5.9 °C -8.2 °C 1029.3 hPa NNE 12.9 km/h 25.7 km/h 84 % 0.0 mm
05:47 -5.9 °C -8.2 °C 1029.3 hPa North 17.7 km/h 22.5 km/h 84 % 0.0 mm
05:52 -5.9 °C -8.2 °C 1029.3 hPa North 4.8 km/h 22.5 km/h 84 % 0.0 mm
05:57 -6.0 °C -8.3 °C 1029.3 hPa NNE 24.1 km/h 24.1 km/h 84 % 0.0 mm
06:02 -6.0 °C -8.3 °C 1029.3 hPa NE 12.9 km/h 24.1 km/h 84 % 0.0 mm
06:12 -6.1 °C -8.4 °C 1029.3 hPa NNE 8.0 km/h 25.7 km/h 84 % 0.0 mm
06:17 -6.2 °C -8.3 °C 1029.3 hPa NE 9.7 km/h 22.5 km/h 85 % 0.0 mm
06:22 -6.2 °C -8.3 °C 1029.3 hPa NE 9.7 km/h 22.5 km/h 85 % 0.0 mm
06:27 -6.3 °C -8.4 °C 1029.3 hPa NE 12.9 km/h 17.7 km/h 85 % 0.0 mm
06:32 -6.3 °C -8.4 °C 1029.3 hPa NNE 14.5 km/h 17.7 km/h 85 % 0.0 mm
06:37 -6.3 °C -8.4 °C 1029.3 hPa NNE 14.5 km/h 20.9 km/h 85 % 0.0 mm
06:42 -6.3 °C -8.4 °C 1029.3 hPa NNE 8.0 km/h 20.9 km/h 85 % 0.0 mm
06:47 -6.3 °C -8.4 °C 1029.3 hPa NE 16.1 km/h 20.9 km/h 85 % 0.0 mm
06:52 -6.4 °C -8.5 °C 1029.3 hPa ENE 8.0 km/h 20.9 km/h 85 % 0.0 mm
06:57 -6.4 °C -8.5 °C 1029.3 hPa NE 19.3 km/h 19.3 km/h 85 % 0.0 mm
07:02 -6.4 °C -8.4 °C 1029.3 hPa NNE 12.9 km/h 19.3 km/h 86 % 0.0 mm
07:07 -6.4 °C -8.4 °C 1029.3 hPa NE 11.3 km/h 19.3 km/h 86 % 0.0 mm
07:12 -6.5 °C -8.5 °C 1029.3 hPa NNE 9.7 km/h 19.3 km/h 86 % 0.0 mm
07:17 -6.6 °C -8.5 °C 1029.3 hPa NNE 11.3 km/h 19.3 km/h 86 % 0.0 mm
07:22 -6.6 °C -8.5 °C 1029.3 hPa NE 4.8 km/h 19.3 km/h 86 % 0.0 mm
07:32 -6.6 °C -8.5 °C 1029.7 hPa NNE 12.9 km/h 20.9 km/h 86 % 0.0 mm
07:37 -6.6 °C -8.5 °C 1029.7 hPa NE 4.8 km/h 22.5 km/h 86 % 0.0 mm
07:42 -6.6 °C -8.5 °C 1029.7 hPa ENE 14.5 km/h 22.5 km/h 86 % 0.0 mm
07:52 -6.5 °C -8.5 °C 1029.7 hPa NE 11.3 km/h 19.3 km/h 86 % 0.0 mm
07:57 -6.4 °C -8.4 °C 1029.7 hPa NE 9.7 km/h 22.5 km/h 86 % 0.0 mm
08:02 -6.5 °C -8.5 °C 1029.7 hPa NE 11.3 km/h 22.5 km/h 86 % 0.0 mm
08:12 -6.4 °C -8.4 °C 1030.0 hPa NNE 9.7 km/h 22.5 km/h 86 % 0.0 mm
08:17 -6.5 °C -8.5 °C 1030.0 hPa NE 12.9 km/h 22.5 km/h 86 % 0.0 mm
08:22 -6.5 °C -8.5 °C 1030.0 hPa NNE 11.3 km/h 22.5 km/h 86 % 0.0 mm
08:32 -6.4 °C -8.4 °C 1030.0 hPa NE 8.0 km/h 24.1 km/h 86 % 0.0 mm
08:42 -6.5 °C -8.5 °C 1030.0 hPa NNE 12.9 km/h 22.5 km/h 86 % 0.0 mm
08:47 -6.5 °C -8.5 °C 1030.4 hPa NE 8.0 km/h 19.3 km/h 86 % 0.0 mm
08:52 -6.4 °C -8.4 °C 1030.4 hPa NE 8.0 km/h 19.3 km/h 86 % 0.0 mm
08:57 -6.4 °C -8.4 °C 1030.4 hPa ENE 8.0 km/h 22.5 km/h 86 % 0.0 mm
09:02 -6.4 °C -8.4 °C 1030.7 hPa NE 6.4 km/h 22.5 km/h 86 % 0.0 mm
09:12 -6.3 °C -8.3 °C 1030.7 hPa NNE 9.7 km/h 19.3 km/h 86 % 0.0 mm
09:17 -6.2 °C -8.2 °C 1030.7 hPa NNE 12.9 km/h 20.9 km/h 86 % 0.0 mm
09:22 -6.2 °C -8.2 °C 1030.7 hPa NE 4.8 km/h 20.9 km/h 86 % 0.0 mm
09:27 -6.1 °C -8.2 °C 1030.7 hPa NE 6.4 km/h 20.9 km/h 85 % 0.0 mm
09:32 -6.0 °C -8.1 °C 1030.7 hPa NE 12.9 km/h 20.9 km/h 85 % 0.0 mm
09:37 -6.0 °C -8.1 °C 1030.7 hPa NNE 9.7 km/h 17.7 km/h 85 % 0.0 mm
09:42 -5.9 °C -8.0 °C 1030.7 hPa NNE 11.3 km/h 17.7 km/h 85 % 0.0 mm
09:52 -5.7 °C -7.8 °C 1030.7 hPa NE 4.8 km/h 17.7 km/h 85 % 0.0 mm
09:57 -5.6 °C -7.7 °C 1031.0 hPa ENE 8.0 km/h 14.5 km/h 85 % 0.0 mm
10:02 -5.6 °C -7.9 °C 1030.7 hPa NNE 6.4 km/h 14.5 km/h 84 % 0.0 mm
10:07 -5.5 °C -7.8 °C 1031.0 hPa NE 9.7 km/h 12.9 km/h 84 % 0.0 mm
10:12 -5.4 °C -7.7 °C 1031.0 hPa NNE 8.0 km/h 12.9 km/h 84 % 0.0 mm
10:17 -5.3 °C -7.6 °C 1031.0 hPa NNE 8.0 km/h 14.5 km/h 84 % 0.0 mm
10:22 -5.3 °C -7.6 °C 1031.0 hPa NE 6.4 km/h 14.5 km/h 84 % 0.0 mm
10:27 -5.1 °C -7.4 °C 1031.0 hPa NNE 8.0 km/h 14.5 km/h 84 % 0.0 mm
10:37 -4.9 °C -7.2 °C 1031.0 hPa NE 4.8 km/h 14.5 km/h 84 % 0.0 mm
10:42 -4.8 °C -7.4 °C 1031.0 hPa NE 8.0 km/h 16.1 km/h 82 % 0.0 mm
10:47 -4.7 °C -7.1 °C 1031.4 hPa Calm   16.1 km/h 83 % 0.0 mm
10:52 -4.6 °C -7.0 °C 1031.4 hPa NE 1.6 km/h 16.1 km/h 83 % 0.0 mm
10:57 -4.5 °C -7.1 °C 1031.4 hPa NNE 1.6 km/h 11.3 km/h 82 % 0.0 mm
11:02 -4.4 °C -7.0 °C 1031.4 hPa ENE 3.2 km/h 11.3 km/h 82 % 0.0 mm
11:07 -4.3 °C -7.1 °C 1031.4 hPa NE 1.6 km/h 12.9 km/h 81 % 0.0 mm
11:12 -4.3 °C -7.1 °C 1031.4 hPa NE 4.8 km/h 14.5 km/h 81 % 0.0 mm
11:17 -4.1 °C -6.7 °C 1031.4 hPa NE 4.8 km/h 14.5 km/h 82 % 0.0 mm
11:22 -4.1 °C -6.9 °C 1031.4 hPa NNE 8.0 km/h 14.5 km/h 81 % 0.0 mm
11:27 -4.1 °C -6.9 °C 1031.4 hPa NE 3.2 km/h 12.9 km/h 81 % 0.0 mm
11:32 -3.9 °C -6.7 °C 1031.4 hPa NE 8.0 km/h 12.9 km/h 81 % 0.0 mm
11:37 -3.8 °C -6.4 °C 1031.4 hPa NE 6.4 km/h 12.9 km/h 82 % 0.0 mm
11:42 -3.8 °C -6.7 °C 1031.0 hPa NNE 6.4 km/h 12.9 km/h 80 % 0.0 mm
11:47 -3.8 °C -6.7 °C 1031.0 hPa NE 4.8 km/h 12.9 km/h 80 % 0.0 mm
11:52 -3.6 °C -6.4 °C 1031.0 hPa NE 6.4 km/h 12.9 km/h 81 % 0.0 mm
11:57 -3.4 °C -6.2 °C 1031.0 hPa ENE 1.6 km/h 12.9 km/h 81 % 0.0 mm
12:02 -3.2 °C -6.2 °C 1031.0 hPa ENE 4.8 km/h 12.9 km/h 80 % 0.0 mm
12:07 -3.1 °C -6.1 °C 1031.0 hPa Calm   11.3 km/h 80 % 0.0 mm
12:12 -3.0 °C -6.1 °C 1031.0 hPa East 4.8 km/h 11.3 km/h 79 % 0.0 mm
12:17 -2.9 °C -5.9 °C 1031.4 hPa NE 3.2 km/h 11.3 km/h 80 % 0.0 mm
12:22 -2.8 °C -5.9 °C 1031.4 hPa NE 8.0 km/h 11.3 km/h 79 % 0.0 mm
12:27 -2.8 °C -5.9 °C 1031.0 hPa NNE 9.7 km/h 11.3 km/h 79 % 0.0 mm
12:32 -2.7 °C -5.7 °C 1031.0 hPa NE 3.2 km/h 12.9 km/h 80 % 0.0 mm
12:37 -2.7 °C -5.8 °C 1031.0 hPa NNE 1.6 km/h 12.9 km/h 79 % 0.0 mm
12:42 -2.7 °C -6.0 °C 1031.0 hPa NNE 3.2 km/h 14.5 km/h 78 % 0.0 mm
12:47 -2.6 °C -5.9 °C 1031.0 hPa NNE 6.4 km/h 14.5 km/h 78 % 0.0 mm
12:52 -2.6 °C -5.9 °C 1031.0 hPa ENE 1.6 km/h 14.5 km/h 78 % 0.0 mm
12:57 -2.4 °C -5.7 °C 1031.0 hPa Calm   9.7 km/h 78 % 0.0 mm
13:02 -2.3 °C -5.6 °C 1031.0 hPa Calm   9.7 km/h 78 % 0.0 mm
13:07 -2.1 °C -5.6 °C 1031.0 hPa NNE 3.2 km/h 9.7 km/h 77 % 0.0 mm
13:12 -2.1 °C -5.9 °C 1030.7 hPa Calm   9.7 km/h 75 % 0.0 mm
13:17 -1.9 °C -5.6 °C 1030.7 hPa NNE 4.8 km/h 6.4 km/h 76 % 0.0 mm
13:22 -1.8 °C -5.6 °C 1030.7 hPa NNW 1.6 km/h 6.4 km/h 75 % 0.0 mm
13:32 -1.5 °C -5.5 °C 1030.7 hPa NE 3.2 km/h 6.4 km/h 74 % 0.0 mm
13:37 -1.4 °C -5.4 °C 1030.7 hPa Calm   6.4 km/h 74 % 0.0 mm
13:42 -1.3 °C -5.3 °C 1030.7 hPa NNE 4.8 km/h 6.4 km/h 74 % 0.0 mm
13:52 -1.1 °C -5.0 °C 1030.4 hPa NNW 6.4 km/h 14.5 km/h 75 % 0.0 mm
13:57 -1.0 °C -5.0 °C 1030.4 hPa North 6.4 km/h 14.5 km/h 74 % 0.0 mm
14:02 -0.9 °C -4.9 °C 1030.4 hPa NW 4.8 km/h 14.5 km/h 74 % 0.0 mm
14:07 -0.9 °C -4.9 °C 1030.4 hPa NNE 3.2 km/h 11.3 km/h 74 % 0.0 mm
14:12 -0.8 °C -4.9 °C 1030.4 hPa NE 3.2 km/h 11.3 km/h 74 % 0.0 mm
14:17 -0.7 °C -4.8 °C 1030.4 hPa North 4.8 km/h 9.7 km/h 74 % 0.0 mm
14:22 -0.7 °C -4.9 °C 1030.4 hPa NNE 4.8 km/h 9.7 km/h 73 % 0.0 mm
14:27 -0.6 °C -4.8 °C 1030.4 hPa ENE 4.8 km/h 9.7 km/h 73 % 0.0 mm
14:32 -0.6 °C -5.0 °C 1030.4 hPa NE 8.0 km/h 9.7 km/h 72 % 0.0 mm
14:37 -0.6 °C -5.0 °C 1030.4 hPa NNE 11.3 km/h 14.5 km/h 72 % 0.0 mm
14:42 -0.5 °C -4.7 °C 1030.4 hPa NNE 3.2 km/h 14.5 km/h 73 % 0.0 mm
14:47 -0.4 °C -4.8 °C 1030.4 hPa NE 8.0 km/h 14.5 km/h 72 % 0.0 mm
14:52 -0.4 °C -4.8 °C 1030.4 hPa NW 1.6 km/h 12.9 km/h 72 % 0.0 mm
14:57 -0.3 °C -4.7 °C 1030.4 hPa NE 9.7 km/h 12.9 km/h 72 % 0.0 mm
15:02 -0.4 °C -5.0 °C 1030.4 hPa NNE 3.2 km/h 12.9 km/h 71 % 0.0 mm
15:07 -0.4 °C -5.0 °C 1030.4 hPa NNE 3.2 km/h 11.3 km/h 71 % 0.0 mm
15:12 -0.3 °C -4.5 °C 1030.4 hPa NE 3.2 km/h 11.3 km/h 73 % 0.0 mm
15:17 -0.2 °C -4.6 °C 1030.4 hPa North 6.4 km/h 11.3 km/h 72 % 0.0 mm
15:22 -0.2 °C -4.6 °C 1030.4 hPa NNE 9.7 km/h 11.3 km/h 72 % 0.0 mm
15:27 -0.1 °C -4.4 °C 1030.4 hPa NNE 4.8 km/h 11.3 km/h 73 % 0.0 mm
15:32 -0.2 °C -4.6 °C 1030.4 hPa ENE 3.2 km/h 11.3 km/h 72 % 0.0 mm
15:37 -0.2 °C -4.5 °C 1030.4 hPa NE 6.4 km/h 12.9 km/h 73 % 0.0 mm
15:42 -0.2 °C -4.6 °C 1030.4 hPa NNE 6.4 km/h 12.9 km/h 72 % 0.0 mm
15:52 -0.2 °C -4.6 °C 1030.4 hPa WNW 8.0 km/h 16.1 km/h 72 % 0.0 mm
15:57 -0.2 °C -4.6 °C 1030.4 hPa NNE 9.7 km/h 16.1 km/h 72 % 0.0 mm
16:02 -0.2 °C -4.6 °C 1030.4 hPa NE 4.8 km/h 16.1 km/h 72 % 0.0 mm
16:07 -0.2 °C -4.5 °C 1030.4 hPa NNE 9.7 km/h 16.1 km/h 73 % 0.0 mm
16:12 -0.2 °C -4.6 °C 1030.4 hPa NE 11.3 km/h 14.5 km/h 72 % 0.0 mm
16:17 -0.3 °C -4.5 °C 1030.4 hPa NE 14.5 km/h 19.3 km/h 73 % 0.0 mm
16:22 -0.3 °C -4.4 °C 1030.4 hPa NE 9.7 km/h 19.3 km/h 74 % 0.0 mm
16:27 -0.4 °C -4.5 °C 1030.4 hPa NNE 11.3 km/h 19.3 km/h 74 % 0.0 mm
16:32 -0.5 °C -4.6 °C 1030.4 hPa NNE 17.7 km/h 19.3 km/h 74 % 0.0 mm
16:37 -0.6 °C -4.5 °C 1030.4 hPa NNE 8.0 km/h 20.9 km/h 75 % 0.0 mm
16:42 -0.6 °C -4.5 °C 1030.4 hPa NNE 17.7 km/h 20.9 km/h 75 % 0.0 mm
16:47 -0.7 °C -4.6 °C 1030.4 hPa NE 11.3 km/h 20.9 km/h 75 % 0.0 mm
16:52 -0.8 °C -4.5 °C 1030.4 hPa NE 6.4 km/h 19.3 km/h 76 % 0.0 mm
16:57 -0.8 °C -4.5 °C 1030.4 hPa NE 4.8 km/h 19.3 km/h 76 % 0.0 mm
17:02 -0.9 °C -4.6 °C 1030.7 hPa NE 9.7 km/h 19.3 km/h 76 % 0.0 mm
17:07 -0.9 °C -4.4 °C 1030.7 hPa NE 6.4 km/h 16.1 km/h 77 % 0.0 mm
17:12 -1.0 °C -4.5 °C 1030.7 hPa NE 9.7 km/h 16.1 km/h 77 % 0.0 mm
17:17 -1.1 °C -4.6 °C 1030.7 hPa ENE 8.0 km/h 14.5 km/h 77 % 0.0 mm
17:22 -1.2 °C -4.7 °C 1030.7 hPa NE 8.0 km/h 14.5 km/h 77 % 0.0 mm
17:27 -1.2 °C -4.7 °C 1030.7 hPa NE 3.2 km/h 14.5 km/h 77 % 0.0 mm
17:32 -1.3 °C -4.6 °C 1030.7 hPa North 6.4 km/h 14.5 km/h 78 % 0.0 mm
17:37 -1.4 °C -4.7 °C 1030.7 hPa NE 4.8 km/h 12.9 km/h 78 % 0.0 mm
17:42 -1.5 °C -4.8 °C 1030.7 hPa NE 6.4 km/h 9.7 km/h 78 % 0.0 mm
17:47 -1.6 °C -4.9 °C 1030.7 hPa NE 8.0 km/h 9.7 km/h 78 % 0.0 mm
17:52 -1.6 °C -4.9 °C 1030.7 hPa NE 8.0 km/h 9.7 km/h 78 % 0.0 mm
17:57 -1.6 °C -4.9 °C 1030.7 hPa NE 8.0 km/h 9.7 km/h 78 % 0.0 mm
18:02 -1.6 °C -4.9 °C 1030.7 hPa NNE 6.4 km/h 9.7 km/h 78 % 0.0 mm
18:07 -1.7 °C -5.0 °C 1030.4 hPa NNE 4.8 km/h 12.9 km/h 78 % 0.0 mm
18:12 -1.7 °C -4.9 °C 1030.7 hPa NE 8.0 km/h 12.9 km/h 79 % 0.0 mm
18:17 -1.8 °C -5.0 °C 1030.7 hPa NNE 6.4 km/h 12.9 km/h 79 % 0.0 mm
18:22 -1.9 °C -4.9 °C 1030.4 hPa NNE 9.7 km/h 14.5 km/h 80 % 0.0 mm
18:32 -2.1 °C -4.9 °C 1030.7 hPa ENE 8.0 km/h 14.5 km/h 81 % 0.0 mm
18:37 -2.2 °C -5.0 °C 1030.7 hPa NE 6.4 km/h 14.5 km/h 81 % 0.0 mm
18:42 -2.2 °C -5.0 °C 1030.7 hPa NE 11.3 km/h 14.5 km/h 81 % 0.0 mm
18:47 -2.3 °C -5.1 °C 1030.7 hPa NE 8.0 km/h 14.5 km/h 81 % 0.0 mm
18:52 -2.4 °C -5.2 °C 1030.7 hPa NE 6.4 km/h 14.5 km/h 81 % 0.0 mm
18:57 -2.4 °C -5.2 °C 1030.7 hPa NE 6.4 km/h 16.1 km/h 81 % 0.0 mm
19:02 -2.5 °C -5.3 °C 1030.7 hPa NE 9.7 km/h 16.1 km/h 81 % 0.0 mm
19:07 -2.6 °C -5.2 °C 1030.7 hPa North 6.4 km/h 16.1 km/h 82 % 0.0 mm
19:12 -2.6 °C -5.2 °C 1030.7 hPa NE 11.3 km/h 14.5 km/h 82 % 0.0 mm
19:17 -2.7 °C -5.3 °C 1030.7 hPa NE 16.1 km/h 16.1 km/h 82 % 0.0 mm
19:22 -2.7 °C -5.3 °C 1030.7 hPa NE 11.3 km/h 16.1 km/h 82 % 0.0 mm
19:27 -2.7 °C -5.3 °C 1030.7 hPa NNW 6.4 km/h 16.1 km/h 82 % 0.0 mm
19:32 -2.8 °C -5.4 °C 1030.7 hPa NNE 6.4 km/h 16.1 km/h 82 % 0.0 mm
19:42 -2.9 °C -5.4 °C 1031.0 hPa NE 4.8 km/h 12.9 km/h 83 % 0.0 mm
19:47 -2.9 °C -5.5 °C 1030.7 hPa NE 11.3 km/h 12.9 km/h 82 % 0.0 mm
19:57 -3.1 °C -5.6 °C 1030.7 hPa NE 9.7 km/h 14.5 km/h 83 % 0.0 mm
20:02 -3.2 °C -5.7 °C 1031.0 hPa NW 6.4 km/h 14.5 km/h 83 % 0.0 mm
20:07 -3.2 °C -5.7 °C 1031.0 hPa NNE 9.7 km/h 14.5 km/h 83 % 0.0 mm
20:17 -3.4 °C -5.7 °C 1031.0 hPa NE 1.6 km/h 9.7 km/h 84 % 0.0 mm
20:27 -3.5 °C -5.8 °C 1031.0 hPa Calm   9.7 km/h 84 % 0.0 mm
20:32 -3.6 °C -5.9 °C 1031.0 hPa NNE 3.2 km/h 9.7 km/h 84 % 0.0 mm
20:37 -3.6 °C -5.9 °C 1031.0 hPa North 3.2 km/h 6.4 km/h 84 % 0.0 mm
20:42 -3.6 °C -5.9 °C 1031.0 hPa Calm   4.8 km/h 84 % 0.0 mm
20:47 -3.7 °C -6.0 °C 1031.0 hPa Calm   4.8 km/h 84 % 0.0 mm
20:52 -3.8 °C -5.9 °C 1031.0 hPa Calm   4.8 km/h 85 % 0.0 mm
20:57 -3.9 °C -6.0 °C 1031.0 hPa North 1.6 km/h 4.8 km/h 85 % 0.0 mm
21:02 -3.9 °C -6.0 °C 1031.0 hPa Calm   4.8 km/h 85 % 0.0 mm
21:07 -4.0 °C -6.1 °C 1031.0 hPa ENE 1.6 km/h 4.8 km/h 85 % 0.0 mm
21:17 -4.2 °C -6.3 °C 1031.0 hPa Calm   4.8 km/h 85 % 0.0 mm
21:22 -4.2 °C -6.2 °C 1031.0 hPa Calm   4.8 km/h 86 % 0.0 mm
21:27 -4.2 °C -6.2 °C 1031.0 hPa Calm   4.8 km/h 86 % 0.0 mm
21:32 -4.2 °C -6.2 °C 1031.0 hPa NNW 3.2 km/h 4.8 km/h 86 % 0.0 mm
21:37 -4.2 °C -6.2 °C 1031.0 hPa Calm   4.8 km/h 86 % 0.0 mm
21:42 -4.2 °C -6.2 °C 1031.0 hPa NE 3.2 km/h 6.4 km/h 86 % 0.0 mm
21:47 -4.2 °C -6.2 °C 1031.0 hPa NNW 1.6 km/h 6.4 km/h 86 % 0.0 mm
21:52 -4.3 °C -6.3 °C 1031.0 hPa NE 3.2 km/h 6.4 km/h 86 % 0.0 mm
21:57 -4.3 °C -6.3 °C 1031.0 hPa Calm   6.4 km/h 86 % 0.0 mm
22:02 -4.3 °C -6.3 °C 1031.0 hPa NNW 1.6 km/h 6.4 km/h 86 % 0.0 mm
22:07 -4.3 °C -6.3 °C 1031.0 hPa NNW 1.6 km/h 6.4 km/h 86 % 0.0 mm
22:12 -4.3 °C -6.3 °C 1031.0 hPa NNW 3.2 km/h 4.8 km/h 86 % 0.0 mm
22:17 -4.3 °C -6.3 °C 1030.7 hPa Calm   4.8 km/h 86 % 0.0 mm
22:22 -4.4 °C -6.4 °C 1030.7 hPa NW 1.6 km/h 6.4 km/h 86 % 0.0 mm
22:27 -4.5 °C -6.5 °C 1030.7 hPa Calm   6.4 km/h 86 % 0.0 mm
22:32 -4.6 °C -6.6 °C 1030.7 hPa Calm   6.4 km/h 86 % 0.0 mm
22:37 -4.7 °C -6.5 °C 1030.7 hPa Calm   4.8 km/h 87 % 0.0 mm
22:42 -4.7 °C -6.5 °C 1030.7 hPa Calm   3.2 km/h 87 % 0.0 mm
22:47 -4.7 °C -6.5 °C 1031.0 hPa Calm   1.6 km/h 87 % 0.0 mm
22:52 -4.8 °C -6.6 °C 1030.7 hPa Calm   1.6 km/h 87 % 0.0 mm
22:57 -4.8 °C -6.6 °C 1031.0 hPa Calm   1.6 km/h 87 % 0.0 mm
23:02 -4.8 °C -6.6 °C 1031.0 hPa Calm   1.6 km/h 87 % 0.0 mm
23:12 -4.9 °C -6.7 °C 1031.0 hPa Calm   1.6 km/h 87 % 0.0 mm
23:17 -4.9 °C -6.7 °C 1031.0 hPa Calm   3.2 km/h 87 % 0.0 mm
23:22 -5.1 °C -6.9 °C 1031.0 hPa Calm   3.2 km/h 87 % 0.0 mm
23:27 -5.0 °C -6.7 °C 1031.0 hPa Calm   3.2 km/h 88 % 0.0 mm
23:32 -5.1 °C -6.9 °C 1030.7 hPa Calm   3.2 km/h 87 % 0.0 mm
23:37 -5.1 °C -6.9 °C 1030.7 hPa Calm   1.6 km/h 87 % 0.0 mm
23:42 -5.2 °C -7.0 °C 1030.7 hPa Calm   1.6 km/h 87 % 0.0 mm
23:47 -5.3 °C -7.1 °C 1030.7 hPa Calm   1.6 km/h 87 % 0.0 mm
23:52 -5.4 °C -7.1 °C 1030.7 hPa Calm   1.6 km/h 88 % 0.0 mm
23:57 -5.4 °C -7.1 °C 1030.7 hPa Calm   1.6 km/h 88 % 0.0 mm
Meteo18
Compliments of Weather Underground - 4 mb

Script developed by  Jim McMurry - jmcmurry@mwt.net Adapted for the template by  Wim van der Kuil - Leuven-Template.eu

You find our weather info also at:

European Weather Network

Weather Underground

Equipment we use:

Weather-station
Davis Vue

Weather-program
Meteohub

Weather-server
Raspberry PI 2 B+

Provider
1 and 1

Davis Vue

Meteohub

Raspberry PI 2 B+

1 and 1